Home   Weather   Ingolstadt   Past weeks

Flag for Germany Past Weather in Ingolstadt, Bavaria, Germany — Yesterday and Last 2 Weeks

Now
36 °F

Chilly.


Feels Like: 36 °F
Forecast: 25 / 58 °F
Wind: No wind

Location: Ingolstadt Airport

Current Time: Apr 23, 2017 at 11:38:29 pm

Latest Report: Apr 23, 2017 at 10:20 pm


Visibility: N/A

Pressure: 30.24 "Hg

Humidity: 70%

Dew Point: 27 °F

Location of IngolstadtLocation

Past Weather in Ingolstadt — Graph

°F

Ingolstadt Temperature Yesterday

Maximum temperature yesterday: 52 °F (at 1:20 pm)
Minimum temperature yesterday: 43 °F (at 4:20 am)
Average temperature yesterday: 45 °F

High & Low Weather Summary for the Past Weeks

 TemperatureHumidityPressure
High73 °F (Apr 10, 2:20 pm)100% (Apr 9, 4:20 am)30.51 "Hg (Apr 9, 4:20 am)
Low25 °F (Apr 21, 5:20 am)23% (Apr 10, 6:20 pm)29.86 "Hg (Apr 17, 3:20 pm)
Average46 °F66%30.15 "Hg
* Reported Apr 8 9:20 pm — Apr 23 9:20 pm, Ingolstadt, Weather by CustomWeather, © 2017

Note: Actual official high and low records may vary slightly from our data, if they occured in-between our weather recording intervals... More about our weather records

Advertising

Ingolstadt Weather History for the Previous 24 Hours

Scroll right to see more
 ConditionsComfort  
Time TempWeatherWind HumidityBarometerVisibility
9:20 pm
Sun, Apr 23
41 °FQuite cool.2 mph57%30.21 "HgN/A
8:20 pm45 °FQuite cool.7 mph42%30.21 "HgN/A
7:20 pm46 °FCool.9 mph40%30.21 "HgN/A
6:20 pm46 °FCool.9 mph43%30.21 "HgN/A
5:20 pm46 °FCool.12 mph43%30.21 "HgN/A
4:20 pm46 °FCool.10 mph43%30.21 "HgN/A
3:20 pm46 °FCool.12 mph43%30.21 "HgN/A
2:20 pm46 °FCool.10 mph43%30.21 "HgN/A
1:20 pm45 °FQuite cool.10 mph49%30.21 "HgN/A
12:20 pm46 °FCool.14 mph43%30.21 "HgN/A
11:20 am45 °FQuite cool.14 mph49%30.21 "HgN/A
10:20 am45 °FQuite cool.9 mph61%30.21 "HgN/A
9:20 am41 °FQuite cool.8 mph76%30.21 "HgN/A
8:20 am41 °FQuite cool.10 mph76%30.21 "HgN/A
7:20 am39 °FChilly.7 mph87%30.18 "HgN/A
6:20 am39 °FChilly.5 mph81%30.18 "HgN/A
5:20 am39 °FChilly.7 mph81%30.18 "HgN/A
4:20 am39 °FChilly.8 mph87%30.18 "HgN/A
3:20 am39 °FChilly.5 mph87%30.15 "HgN/A
2:20 am39 °FChilly.6 mph87%30.15 "HgN/A
1:20 am41 °FQuite cool.7 mph81%30.18 "HgN/A
12:20 am41 °FQuite cool.6 mph87%30.15 "HgN/A
11:20 pm
Sat, Apr 22
43 °FQuite cool.8 mph87%30.15 "HgN/A
Weather by CustomWeather, © 2017

See weather overviewHow to use our weather pages